Regional Weather Roundup
Issued by NWS

Home | Current Version | Previous Version | Text Only | Print | Product List | Glossary Off
Versions: 1 2 3 4 5 6 7 8 9 10 11 12 13 14 15 16 17 18 19 20 21 22 23 24 25 26 27 28 29 30 31 32 33 34 35 36 37 38 39 40 41 42 43 44 45 46 47 48 49 50

000
ASUS45 KBOU 110607
RWRCO

WEATHER ROUNDUP FOR COLORADO
NATIONAL WEATHER SERVICE DENVER/BOULDER CO
1100 PM MST WED FEB 10 2016

NOTE: "FAIR" INDICATES FEW OR NO CLOUDS BELOW 12000 FEET WITH NO
SIGNIFICANT WEATHER AND/OR OBSTRUCTIONS TO VISIBILITY.

COZ001>005-013-030-031-110700-
...NORTHWEST COLORADO...

CITY           SKY/WX    TMP DP  RH WIND       PRES   REMARKS
CRAIG          CLOUDY     2  -2  83 CALM      30.39R
HAYDEN         CLOUDY    16  10  79 E6        30.37S WCI   7
MEEKER         CLOUDY    19  12  74 CALM      30.38R
MOUNT WERNER   NOT AVBL
STEAMBOAT SPGS CLOUDY    15  12  88 W3        30.38S
WALDEN         CLOUDY    23   7  50 CALM      30.36S
$$

COZ006>008-011-110700-
...WEST CENTRAL VALLEYS...

CITY           SKY/WX    TMP DP  RH WIND       PRES   REMARKS
GRAND JUNCTION CLOUDY    26  23  88 E5        30.41R WCI  20
MONTROSE       CLOUDY    27  20  75 S13       30.44R WCI  16
EAGLE          CLEAR     21  16  79 E3        30.39
RIFLE          CLOUDY    22  15  75 SW3       30.42R
DELTA          CLOUDY    31  25  78 CALM      30.43R
NUCLA          CLOUDY    30  21  69 E8        30.43R WCI  23
$$

COZ017>023-064>068-110700-
...SOUTHWEST COLORADO...

CITY           SKY/WX    TMP DP  RH WIND       PRES   REMARKS
DURANGO        CLOUDY    19  14  81 N3        30.36S
CORTEZ         CLOUDY    23  18  81 E6        30.37R WCI  16
PAGOSA SPRINGS CLOUDY    24  16  71 CALM      30.38F
TELLURIDE      CLOUDY    29   5  37 SE5       30.46R WCI  24
WOLF CREEK PAS CLOUDY    28  -9  19 W6        30.51F WCI  22
$$

COZ009-010-012-014-032>034-037-058>063-110700-
...CENTRAL COLORADO...

CITY           SKY/WX    TMP DP  RH WIND       PRES   REMARKS
ASPEN          CLOUDY    21  10  62 S6        30.40F WCI  13
BUENA VISTA    CLOUDY    37   8  29 NW10      30.35S
COPPER MTN     CLOUDY    27   0  31 W6G17     30.46S WCI  20
BERTHOUD PASS  FAIR      18   9  68 NW31G40   30.41R WCI  -2
COTTONWOOD PAS CLOUDY    39  -9  12 W15G23    30.39F
GUNNISON       CLOUDY    -6  -9  84 CALM      30.51R
KREMMLING      CLOUDY    -2  -8  78 SE3       30.44R
LEADVILLE      CLOUDY    19   2  47 NE10      30.41S WCI   7
MONARCH PASS   CLOUDY    23   1  39 MISG      30.54F
SALIDA         NOT AVBL
SUNLIGHT       CLOUDY    30  10  43 CALM        N/A
WILKERSON PASS CLOUDY    30   0  27 NW12G28   30.43F WCI  21
$$

COZ069>075-110700-
...SAN LUIS VALLEY/SANGRE DE CRISTO MOUNTAINS...

CITY           SKY/WX    TMP DP  RH WIND       PRES   REMARKS
ALAMOSA        CLOUDY    27  21  78 W6        30.36R WCI  20
LA VETA PASS   CLOUDY    32  10  40 MISG      30.39R
SAGUACHE       CLOUDY    28  16  59 CALM      30.38R
$$

COZ035-036-038>040-110700-
...NORTHERN COLORADO FRONT RANGE...

CITY           SKY/WX    TMP DP  RH WIND       PRES   REMARKS
DENVER INTL AP CLOUDY    42  14  32 S7        30.19S
DMNS CITY PARK   N/A     49   6  17 E7G14     30.20S
AURORA         NOT AVBL
FRONT RANGE AP   N/A     39  18  41 S6        30.21
ERIE MUNI ARPT CLEAR     38  18  44 S6        30.18F
BOULDER MUN AP CLEAR     52   9  17 SW6       30.18S
CENTENNIAL     CLOUDY    45  10  24 W7        30.21R
BROOMFIELD     CLEAR     46  12  25 N7        30.20S
FORT COLLINS   CLOUDY    43  14  31 CALM      30.18S
LONGMONT       CLOUDY    33  21  60 NW3       30.20F
$$

COZ041-046-047-076>085-087-088-110700-
...PIKES PEAK/PALMER DIVIDE AND SOUTHERN FOOTHILLS...

CITY           SKY/WX    TMP DP  RH WIND       PRES   REMARKS
COLO. SPRINGS  CLOUDY    44  14  29 N8        30.23R
A. F. ACADEMY  CLOUDY    37  14  38 NE8       30.23R
SCHRIEVER AFB  FAIR      40  16  37 N9        30.23R
ELLICOTT       CLOUDY   N/A N/A N/A N5        30.21R
FALCON         NOT AVBL
FORT CARSON    CLOUDY    49  13  24 W5        30.20R
LIMON          CLOUDY    31  21  66 N9        30.21R WCI  23
MONUMENT HILL  CLOUDY    36  10  35 NW5       30.27R
TRINIDAD       CLOUDY    43   9  24 W13       30.19S
$$

COZ042>045-048>051-090-091-110700-
...NORTHEAST COLORADO...

CITY           SKY/WX    TMP DP  RH WIND       PRES   REMARKS
GREELEY ARPT   CLOUDY    34  21  60 SE6       30.18S WCI  29
AKRON          CLEAR     35  23  61 NW14      30.16R WCI  26
BURLINGTON     CLOUDY    35  24  64 NW12      30.16R WCI  27
WRAY           NOT AVBL
STERLING       CLEAR     37  27  65 NW10      30.15R
HOLYOKE        CLOUDY    41  28  60 NW10      30.15R
FORT MORGAN    CLEAR     40  21  47 N13       30.17S
$$

COZ086-089-092>099-110700-
...SOUTHEAST COLORADO...

CITY           SKY/WX    TMP DP  RH WIND       PRES   REMARKS
PUEBLO         CLOUDY    46  23  40 NE8       30.18R
LA JUNTA       CLOUDY    45  26  47 SW7       30.19R
LAMAR          CLOUDY    35  22  58 CALM      30.15R
SPRINGFIELD      N/A     34  20  56 W9        30.15R WCI  27
$$



USA.gov is the U.S. government's official web portal to all federal, state and local government web resources and services.